Simultaneous Nadir Overpasses (SNOs) Predictions

Prediction of SNOs between GOES-17 and METOP-C Satellite Orbit:

Table of predicted SNOs for the next 14.0 days since TLE Epoch: 11/16/2019
Index Date Time (GOES-17) GOES-17 Lat,Lon METOP-C Lat,Lon Distance(km) Time Diff (sec)
1 11/16/2019 18:53:50 0.02,-137.22 0.86,-141.02 433.17 80
2 11/17/2019 18:35:50 0.03,-137.21 -0.21,-136.01 135.70 80
3 11/19/2019 06:52:09 -0.03,-137.19 -0.79,-140.61 390.05 80
4 11/20/2019 06:31:30 -0.04,-137.18 0.34,-135.62 178.30 80
5 11/21/2019 18:50:21 0.04,-137.18 0.72,-140.18 342.03 80
6 11/22/2019 18:32:22 0.04,-137.17 -0.42,-135.19 226.07 80
7 11/24/2019 06:48:40 -0.04,-137.14 -0.65,-139.77 300.65 80
8 11/25/2019 06:30:40 -0.04,-137.12 0.48,-134.78 267.01 80
9 11/26/2019 18:46:53 0.04,-137.11 0.51,-139.35 254.46 80
10 11/27/2019 18:28:52 0.04,-137.09 -0.56,-134.35 312.96 80
11 11/29/2019 06:45:12 -0.04,-137.05 -0.45,-138.94 214.85 80




NCC Satellite Simultaneous Nadir Overpasses (SNOs) Prediction Service
